TimeCDT,TemperatureF,Dew PointF,Humidity,Sea Level PressureIn,VisibilityMPH,Wind Direction,Wind SpeedMPH,Gust SpeedMPH,PrecipitationIn,Events,Conditions,WindDirDegrees,DateUTC
12:15 AM,65.1,61.5,88,29.99,10.0,North,6.9,-,N/A,,Clear,350,2013-08-08 05:15:00
12:35 AM,64.6,61.3,89,29.99,10.0,North,5.8,-,N/A,,Clear,350,2013-08-08 05:35:00
12:55 AM,64.0,61.0,90,29.99,10.0,North,4.6,-,N/A,,Clear,350,2013-08-08 05:55:00
1:15 AM,63.5,60.8,91,30.00,10.0,North,4.6,-,N/A,,Clear,350,2013-08-08 06:15:00
1:35 AM,63.5,60.6,90,30.00,10.0,North,4.6,-,N/A,,Clear,350,2013-08-08 06:35:00
1:55 AM,63.0,60.1,90,30.00,10.0,North,4.6,-,N/A,,Clear,350,2013-08-08 06:55:00
2:15 AM,62.8,60.1,91,30.00,10.0,North,5.8,-,N/A,,Clear,350,2013-08-08 07:15:00
2:35 AM,62.8,60.3,91,30.00,10.0,North,4.6,-,N/A,,Clear,360,2013-08-08 07:35:00
2:55 AM,62.8,60.3,91,29.99,10.0,North,5.8,-,N/A,,Clear,360,2013-08-08 07:55:00
3:15 AM,62.6,59.9,91,29.99,10.0,NNW,6.9,-,N/A,,Clear,340,2013-08-08 08:15:00
3:35 AM,61.7,59.2,91,29.99,10.0,NNW,5.8,-,N/A,,Clear,340,2013-08-08 08:35:00
3:55 AM,61.7,59.0,91,29.98,10.0,NNW,6.9,-,N/A,,Clear,340,2013-08-08 08:55:00
4:15 AM,61.7,59.4,92,29.98,7.0,North,6.9,-,N/A,,Clear,350,2013-08-08 09:15:00
4:35 AM,61.3,58.8,91,29.97,10.0,North,5.8,-,N/A,,Clear,10,2013-08-08 09:35:00
4:55 AM,61.0,58.6,92,29.97,7.0,North,6.9,-,N/A,,Clear,360,2013-08-08 09:55:00
5:15 AM,60.8,58.1,91,29.97,10.0,North,5.8,-,N/A,,Clear,10,2013-08-08 10:15:00
5:35 AM,60.1,57.6,91,29.97,10.0,North,5.8,-,N/A,,Clear,360,2013-08-08 10:35:00
5:55 AM,60.1,57.4,91,29.98,10.0,North,4.6,-,N/A,,Clear,10,2013-08-08 10:55:00
6:15 AM,59.9,57.2,91,29.99,10.0,NNE,3.5,-,N/A,,Scattered Clouds,20,2013-08-08 11:15:00
6:35 AM,59.9,57.2,91,29.99,7.0,North,4.6,-,N/A,,Clear,360,2013-08-08 11:35:00
6:55 AM,60.8,58.1,91,30.00,7.0,NNE,3.5,-,N/A,,Scattered Clouds,30,2013-08-08 11:55:00
7:15 AM,60.3,57.7,91,29.99,7.0,NNE,3.5,-,N/A,,Scattered Clouds,20,2013-08-08 12:15:00
7:55 AM,64.8,60.4,86,30.00,10.0,NNE,6.9,-,N/A,,Scattered Clouds,30,2013-08-08 12:55:00
8:15 AM,66.2,61.0,83,30.00,10.0,NNE,6.9,-,N/A,,Scattered Clouds,30,2013-08-08 13:15:00
8:35 AM,67.3,62.1,83,30.00,10.0,NE,5.8,-,N/A,,Mostly Cloudy,50,2013-08-08 13:35:00
8:55 AM,69.1,62.4,79,29.99,10.0,ENE,8.1,-,0.15,,Mostly Cloudy,60,2013-08-08 13:55:00
9:15 AM,71.1,63.9,78,30.00,10.0,NNE,5.8,-,N/A,,Scattered Clouds,20,2013-08-08 14:15:00
9:35 AM,72.3,64.4,76,30.00,10.0,North,6.9,-,N/A,,Scattered Clouds,360,2013-08-08 14:35:00
9:55 AM,74.1,63.7,70,30.02,10.0,NNE,3.5,-,N/A,,Mostly Cloudy,30,2013-08-08 14:55:00
10:15 AM,73.9,62.6,68,30.02,10.0,NE,6.9,-,N/A,,Scattered Clouds,50,2013-08-08 15:15:00
10:35 AM,74.7,62.2,65,30.02,10.0,NE,6.9,-,N/A,,Clear,50,2013-08-08 15:35:00
10:55 AM,75.2,61.9,63,30.02,10.0,ENE,4.6,-,N/A,,Clear,70,2013-08-08 15:55:00
11:15 AM,75.4,62.4,64,30.02,10.0,East,5.8,-,N/A,,Clear,90,2013-08-08 16:15:00
11:35 AM,77.0,62.1,60,30.01,10.0,ENE,5.8,-,N/A,,Clear,60,2013-08-08 16:35:00
11:55 AM,77.0,62.2,60,30.00,10.0,East,6.9,-,N/A,,Clear,90,2013-08-08 16:55:00
12:15 PM,77.9,62.8,60,30.00,10.0,NE,5.8,-,N/A,,Clear,50,2013-08-08 17:15:00
12:35 PM,77.9,62.2,58,29.99,10.0,ENE,8.1,-,N/A,,Clear,70,2013-08-08 17:35:00
12:55 PM,78.6,62.2,57,29.99,10.0,ENE,4.6,-,N/A,,Clear,70,2013-08-08 17:55:00
1:15 PM,79.0,62.4,57,29.99,10.0,East,6.9,-,N/A,,Scattered Clouds,80,2013-08-08 18:15:00
1:35 PM,79.7,61.7,54,29.98,10.0,NE,6.9,-,N/A,,Scattered Clouds,50,2013-08-08 18:35:00
1:55 PM,79.7,62.1,55,29.98,10.0,North,3.5,-,N/A,,Scattered Clouds,360,2013-08-08 18:55:00
2:15 PM,79.9,61.3,53,29.97,10.0,NNE,6.9,-,N/A,,Scattered Clouds,20,2013-08-08 19:15:00
2:35 PM,81.1,62.1,52,29.97,10.0,NNE,10.4,-,N/A,,Scattered Clouds,30,2013-08-08 19:35:00
2:55 PM,80.8,60.1,49,29.97,10.0,North,6.9,-,N/A,,Scattered Clouds,10,2013-08-08 19:55:00
3:15 PM,80.8,60.3,49,29.97,10.0,North,5.8,-,N/A,,Scattered Clouds,360,2013-08-08 20:15:00
3:35 PM,80.1,60.6,51,29.98,10.0,North,9.2,-,N/A,,Scattered Clouds,10,2013-08-08 20:35:00
3:55 PM,79.7,60.6,52,29.98,10.0,NNE,9.2,-,N/A,,Scattered Clouds,20,2013-08-08 20:55:00
4:15 PM,81.0,60.8,50,29.98,10.0,North,9.2,-,N/A,,Scattered Clouds,360,2013-08-08 21:15:00
4:35 PM,78.8,60.6,54,29.98,10.0,North,8.1,-,N/A,,Clear,360,2013-08-08 21:35:00
4:55 PM,79.0,59.7,52,29.98,10.0,North,8.1,-,N/A,,Clear,10,2013-08-08 21:55:00
5:15 PM,79.2,59.9,52,29.99,10.0,North,6.9,-,N/A,,Clear,10,2013-08-08 22:15:00
5:35 PM,78.4,58.8,51,29.99,10.0,North,5.8,-,N/A,,Clear,10,2013-08-08 22:35:00
5:55 PM,77.7,60.8,56,29.98,10.0,NNE,4.6,-,N/A,,Clear,20,2013-08-08 22:55:00
6:15 PM,76.8,61.7,59,29.98,10.0,North,4.6,-,N/A,,Clear,10,2013-08-08 23:15:00
6:35 PM,76.1,61.9,61,29.98,10.0,NNE,4.6,-,N/A,,Clear,20,2013-08-08 23:35:00
6:55 PM,75.4,63.0,65,29.98,10.0,NNE,4.6,-,N/A,,Clear,20,2013-08-08 23:55:00
7:15 PM,74.3,63.5,69,29.98,10.0,NNE,4.6,-,N/A,,Clear,20,2013-08-09 00:15:00
7:35 PM,74.1,63.1,68,29.99,10.0,Calm,Calm,-,N/A,,Clear,0,2013-08-09 00:35:00
7:55 PM,74.3,63.1,68,29.99,10.0,Calm,Calm,-,N/A,,Clear,0,2013-08-09 00:55:00
8:15 PM,73.6,62.8,69,29.98,10.0,Calm,Calm,-,N/A,,Clear,0,2013-08-09 01:15:00
8:35 PM,73.4,63.3,71,29.98,10.0,NNE,3.5,-,N/A,,Clear,20,2013-08-09 01:35:00
8:55 PM,72.5,63.5,73,29.98,10.0,NNE,3.5,-,N/A,,Clear,20,2013-08-09 01:55:00
9:15 PM,72.1,63.1,73,30.00,10.0,Calm,Calm,-,N/A,,Clear,0,2013-08-09 02:15:00
9:35 PM,71.1,63.5,77,30.00,10.0,North,3.5,-,N/A,,Clear,350,2013-08-09 02:35:00
9:55 PM,72.3,63.0,72,30.00,10.0,NNW,3.5,-,N/A,,Clear,340,2013-08-09 02:55:00
10:15 PM,71.8,63.5,75,30.00,10.0,NNW,3.5,-,N/A,,Clear,340,2013-08-09 03:15:00
10:35 PM,71.1,63.1,76,30.00,10.0,North,3.5,-,N/A,,Clear,360,2013-08-09 03:35:00
10:55 PM,69.3,62.6,79,30.00,10.0,NNE,4.6,-,N/A,,Clear,20,2013-08-09 03:55:00
11:15 PM,68.9,62.6,80,30.00,10.0,NNE,3.5,-,N/A,,Clear,20,2013-08-09 04:15:00
11:35 PM,66.7,61.3,83,30.01,10.0,Calm,Calm,-,N/A,,Clear,0,2013-08-09 04:35:00
11:55 PM,66.2,62.4,88,30.01,10.0,Calm,Calm,-,N/A,,Clear,0,2013-08-09 04:55:00